When you browse on this site, cookies collect data to enhance your experience and personalize the content and advertising you see.
Visit our Privacy Policy to learn more. By continuing to use the site, you agree to this use of cookies and data.
  • în România
  • Lista ţărilor
  • Pe 7 zile
  • Temperatura apei
  • Hartă satelitară
  • Meteo pe hartă
  • Widget-uri
  • user-avatar
    Intrare

    Meteo pe oră la Gudalur

    Astăzi, 19 Februarie, Marţi

    Timp Temperatura Precipitaţii Vânt Presiune Umiditate
    00:00 +23°C° 0.2 mm 0 m/s 715 mmHg 88%
    01:00 +24°C° 0.2 mm 1 m/s 714 mmHg 90%
    02:00 +24°C° 0.2 mm 1 m/s 714 mmHg 92%
    03:00 +24°C° 0 mm 1 m/s 714 mmHg 93%
    04:00 +24°C° 0 mm 1 m/s 714 mmHg 94%
    05:00 +24°C° 0 mm 1 m/s 714 mmHg 96%
    06:00 +25°C° 0 mm 1 m/s 715 mmHg 89%
    07:00 +26°C° 0 mm 1 m/s 715 mmHg 83%
    08:00 +28°C° 0 mm 1 m/s 716 mmHg 77%
    09:00 +30°C° 0 mm 1 m/s 716 mmHg 67%
    10:00 +31°C° 0 mm 1 m/s 716 mmHg 58%
    11:00 +34°C° 0 mm 2 m/s 717 mmHg 48%
    12:00 +34°C° 0 mm 2 m/s 716 mmHg 48%
    13:00 +35°C° 0 mm 2 m/s 716 mmHg 47%
    14:00 +35°C° 0 mm 2 m/s 715 mmHg 46%
    15:00 +34°C° 0.4 mm 2 m/s 715 mmHg 52%
    16:00 +31°C° 0.4 mm 2 m/s 715 mmHg 59%
    17:00 +30°C° 0.4 mm 2 m/s 715 mmHg 65%
    18:00 +29°C° 0.4 mm 2 m/s 715 mmHg 71%
    19:00 +27°C° 0.4 mm 1 m/s 716 mmHg 77%
    20:00 +26°C° 0.4 mm 1 m/s 716 mmHg 83%
    21:00 +26°C° 0.1 mm 1 m/s 716 mmHg 85%
    22:00 +26°C° 0.1 mm 1 m/s 716 mmHg 86%
    23:00 +25°C° 0.1 mm 1 m/s 717 mmHg 88%

    Mâine, 20 Februarie, Miercuri

    Timp Temperatura Precipitaţii Vânt Presiune Umiditate
    00:00 +25°C° 0 mm 1 m/s 716 mmHg 90%
    01:00 +24°C° 0 mm 1 m/s 716 mmHg 92%
    02:00 +24°C° 0 mm 1 m/s 716 mmHg 94%
    03:00 +23°C° 0 mm 1 m/s 716 mmHg 95%
    04:00 +23°C° 0 mm 1 m/s 716 mmHg 95%
    05:00 +23°C° 0 mm 1 m/s 716 mmHg 96%
    06:00 +24°C° 0 mm 1 m/s 716 mmHg 91%
    07:00 +24°C° 0 mm 2 m/s 717 mmHg 86%
    08:00 +25°C° 0 mm 2 m/s 718 mmHg 81%
    09:00 +27°C° 0 mm 2 m/s 718 mmHg 71%
    10:00 +29°C° 0 mm 3 m/s 718 mmHg 60%
    11:00 +31°C° 0 mm 3 m/s 718 mmHg 49%
    12:00 +32°C° 0 mm 4 m/s 718 mmHg 47%
    13:00 +33°C° 0 mm 4 m/s 717 mmHg 44%
    14:00 +34°C° 0 mm 4 m/s 716 mmHg 41%
    15:00 +33°C° 0 mm 4 m/s 716 mmHg 44%
    16:00 +32°C° 0 mm 4 m/s 716 mmHg 46%
    17:00 +30°C° 0 mm 3 m/s 716 mmHg 49%
    18:00 +28°C° 0 mm 3 m/s 716 mmHg 56%
    19:00 +26°C° 0 mm 2 m/s 717 mmHg 64%
    20:00 +25°C° 0 mm 1 m/s 718 mmHg 72%
    21:00 +24°C° 0 mm 1 m/s 718 mmHg 75%
    22:00 +24°C° 0 mm 1 m/s 718 mmHg 79%
    23:00 +23°C° 0 mm 1 m/s 718 mmHg 82%

    Poimâine, 21 Februarie, Joi

    Timp Temperatura Precipitaţii Vânt Presiune Umiditate
    00:00 +23°C° 0 mm 1 m/s 718 mmHg 86%
    01:00 +22°C° 0 mm 1 m/s 717 mmHg 89%
    02:00 +22°C° 0 mm 1 m/s 717 mmHg 92%
    03:00 +22°C° 0 mm 1 m/s 717 mmHg 92%
    04:00 +21°C° 0 mm 1 m/s 717 mmHg 92%
    05:00 +21°C° 0 mm 1 m/s 717 mmHg 92%
    06:00 +22°C° 0 mm 1 m/s 718 mmHg 82%
    07:00 +24°C° 0 mm 1 m/s 718 mmHg 72%
    08:00 +26°C° 0 mm 2 m/s 719 mmHg 62%
    09:00 +28°C° 0 mm 2 m/s 719 mmHg 52%
    10:00 +30°C° 0 mm 3 m/s 720 mmHg 43%
    11:00 +33°C° 0 mm 4 m/s 720 mmHg 34%
    12:00 +33°C° 0 mm 4 m/s 719 mmHg 34%
    13:00 +34°C° 0 mm 4 m/s 718 mmHg 33%
    14:00 +34°C° 0 mm 4 m/s 717 mmHg 32%
    15:00 +33°C° 0 mm 4 m/s 717 mmHg 35%
    16:00 +32°C° 0 mm 4 m/s 716 mmHg 37%
    17:00 +31°C° 0 mm 3 m/s 716 mmHg 40%
    18:00 +29°C° 0 mm 3 m/s 717 mmHg 45%
    19:00 +27°C° 0 mm 2 m/s 717 mmHg 51%
    20:00 +25°C° 0 mm 1 m/s 718 mmHg 57%
    21:00 +24°C° 0 mm 1 m/s 718 mmHg 62%
    22:00 +23°C° 0 mm 1 m/s 718 mmHg 67%
    23:00 +23°C° 0 mm 1 m/s 718 mmHg 72%

    22 Februarie, Vineri

    Timp Temperatura Precipitaţii Vânt Presiune Umiditate
    00:00 +22°C° 0 mm 1 m/s 717 mmHg 77%
    01:00 +22°C° 0 mm 1 m/s 717 mmHg 82%
    02:00 +21°C° 0 mm 1 m/s 716 mmHg 86%
    03:00 +21°C° 0 mm 1 m/s 716 mmHg 86%
    04:00 +20°C° 0 mm 1 m/s 716 mmHg 86%
    05:00 +20°C° 0 mm 1 m/s 716 mmHg 85%
    06:00 +21°C° 0 mm 1 m/s 717 mmHg 74%
    07:00 +23°C° 0 mm 1 m/s 717 mmHg 62%
    08:00 +25°C° 0 mm 1 m/s 718 mmHg 51%
    09:00 +27°C° 0 mm 2 m/s 719 mmHg 42%
    10:00 +29°C° 0 mm 2 m/s 719 mmHg 34%
    11:00 +33°C° 0 mm 3 m/s 719 mmHg 25%
    12:00 +33°C° 0 mm 3 m/s 718 mmHg 25%
    13:00 +34°C° 0 mm 3 m/s 717 mmHg 24%
    14:00 +35°C° 0 mm 3 m/s 716 mmHg 24%
    15:00 +34°C° 0 mm 3 m/s 716 mmHg 27%
    16:00 +33°C° 0 mm 3 m/s 716 mmHg 31%
    17:00 +31°C° 0 mm 2 m/s 715 mmHg 34%
    18:00 +29°C° 0 mm 2 m/s 716 mmHg 39%
    19:00 +26°C° 0 mm 1 m/s 716 mmHg 45%
    20:00 +24°C° 0 mm 1 m/s 717 mmHg 50%
    21:00 +24°C° 0 mm 1 m/s 717 mmHg 56%
    22:00 +23°C° 0 mm 1 m/s 717 mmHg 61%
    23:00 +23°C° 0 mm 1 m/s 717 mmHg 67%

    23 Februarie, Sâmbătă

    Timp Temperatura Precipitaţii Vânt Presiune Umiditate
    00:00 +22°C° 0 mm 1 m/s 716 mmHg 74%
    01:00 +22°C° 0 mm 1 m/s 716 mmHg 80%
    02:00 +21°C° 0 mm 1 m/s 715 mmHg 86%
    03:00 +21°C° 0 mm 1 m/s 715 mmHg 85%
    04:00 +20°C° 0 mm 1 m/s 715 mmHg 84%
    05:00 +20°C° 0 mm 1 m/s 714 mmHg 83%
    06:00 +22°C° 0 mm 1 m/s 715 mmHg 70%
    07:00 +23°C° 0 mm 1 m/s 716 mmHg 56%
    08:00 +25°C° 0 mm 2 m/s 717 mmHg 42%
    09:00 +28°C° 0 mm 2 m/s 717 mmHg 34%
    10:00 +30°C° 0 mm 3 m/s 717 mmHg 27%
    11:00 +33°C° 0 mm 3 m/s 717 mmHg 19%
    12:00 +34°C° 0 mm 3 m/s 716 mmHg 19%
    13:00 +34°C° 0 mm 3 m/s 716 mmHg 20%
    14:00 +35°C° 0 mm 3 m/s 715 mmHg 21%
    15:00 +34°C° 0 mm 3 m/s 714 mmHg 23%
    16:00 +33°C° 0 mm 3 m/s 714 mmHg 26%
    17:00 +31°C° 0 mm 2 m/s 714 mmHg 29%
    18:00 +29°C° 0 mm 2 m/s 715 mmHg 33%
    19:00 +26°C° 0 mm 1 m/s 715 mmHg 37%
    20:00 +24°C° 0 mm 1 m/s 716 mmHg 42%
    21:00 +24°C° 0 mm 1 m/s 716 mmHg 43%
    22:00 +23°C° 0 mm 1 m/s 716 mmHg 45%
    23:00 +23°C° 0 mm 1 m/s 716 mmHg 47%

    24 Februarie, Duminică

    Timp Temperatura Precipitaţii Vânt Presiune Umiditate
    00:00 +22°C° 0 mm 1 m/s 715 mmHg 51%
    01:00 +22°C° 0 mm 1 m/s 715 mmHg 56%
    02:00 +21°C° 0 mm 1 m/s 714 mmHg 60%
    03:00 +21°C° 0 mm 1 m/s 714 mmHg 62%
    04:00 +20°C° 0 mm 1 m/s 714 mmHg 63%
    05:00 +20°C° 0 mm 1 m/s 714 mmHg 65%
    06:00 +22°C° 0 mm 1 m/s 715 mmHg 57%
    07:00 +24°C° 0 mm 1 m/s 716 mmHg 49%
    08:00 +26°C° 0 mm 1 m/s 717 mmHg 41%
    09:00 +29°C° 0 mm 1 m/s 717 mmHg 34%
    10:00 +31°C° 0 mm 2 m/s 717 mmHg 27%
    11:00 +34°C° 0 mm 2 m/s 717 mmHg 21%
    12:00 +35°C° 0 mm 2 m/s 716 mmHg 20%
    13:00 +36°C° 0 mm 2 m/s 716 mmHg 19%
    14:00 +37°C° 0 mm 2 m/s 715 mmHg 18%
    15:00 +36°C° 0 mm 2 m/s 715 mmHg 21%
    16:00 +35°C° 0 mm 2 m/s 714 mmHg 24%
    17:00 +32°C° 0 mm 1 m/s 714 mmHg 28%
    18:00 +30°C° 0 mm 1 m/s 715 mmHg 35%
    19:00 +27°C° 0 mm 1 m/s 715 mmHg 43%
    20:00 +24°C° 0 mm 1 m/s 715 mmHg 51%
    21:00 +24°C° 0 mm 1 m/s 716 mmHg 55%
    22:00 +23°C° 0 mm 1 m/s 716 mmHg 59%
    23:00 +23°C° 0 mm 1 m/s 716 mmHg 62%
    Arată mai mult